Showing default

HISPASAT 1A, 22116

Orbit data source: Space-Track

HISPASAT 1A, 22116 is a payload satellite owned by Hispasat (ES) in GEO that was launched on Thu, 10 Sep 1992 UTC via an ARIANE 44LP launch vehicle from the French Guiana (FRGUI). Payload-class satellites include a variety of spacecraft equipped with specific instruments for various scientific and technological missions. These include communications satellites like Starlink; space stations such as the ISS; scientific satellites like the Hubble; Earth observation satellites from companies like Planet Labs, Umbra, and HawkEye 360; GPS; miniature CubeSats for education and research; and military/defense satellites.

Loading next visibility...
Identifier
22116, 1992-060A
Orbit
GEO
Country
Flag of ESES / SPN
Related business
Manufacturer
MMST/BAES
Mission
Non-operational Commercial Communications
Bus & Motor
EUROSTAR 2000, R-4D-11
Mass
2,194 kg wet, 1,013 kg dry
Launch date (UTC)
1992-09-10 (34 years ago)
Launch vehicle
ARIANE 44LP
Launch site
French Guiana (FRGUI)
Object type
Payload
Rocket body
Debris
Shape & HBR
Hex Poly + 2 Pan, 1.3 m
Radar Cross Section
5.719 m², Large (>1 m²)

Expand to show TLE details & history
Last TLE update: 3 days ago

TLE from 3 days ago
0 HISPASAT 1A
1 22116U 92060A   26170.85877913 -.00000268  00000-0  00000-0 0  9990
2 22116  14.1954  10.2427 0003962 332.2773 214.3772  0.99319645119521
Epoch: 2026-06-19T20:36Z
TLE epoch observation values (Epoch: 2026-06-19T20:36:38.516Z)
Latitude
-1.62795°
Longitude
-20.55318°
Altitude
36,069.226 km
Speed
3.064 km/s
True Right ascension
13h 06m 45s
True Declination
-1° 37' 35"
Sunlit
Object was in daylight at epoch
Visualization orbit readout
Latitude
Unknown
Longitude
Unknown
Altitude
Unknown
Speed
Unknown
Apparent Right ascension
Unknown
Apparent Declination
Unknown
Sunlit
N/A
Visualization observer readout
Local Sidereal Time
23:08:26
Azimuth
Unknown
Elevation
Unknown
Doppler factor
Unknown
Orbital elements
Apogee altitude
36,073.427 km
Perigee altitude
36,039.802 km
Semi-major axis
42,434.752 km
Eccentricity
0.0004
Inclination
14.1954°
RAAN
10.2427°
Arg. of periapsis
332.2773°
True anomaly
214.35158°
Mean anomaly
214.3772°
Eccentric anomaly
214.36439°
Mean motion
0.24829 °/min
Orbital period
1,449.91 mins
BSTAR
0
Loading maneuver chart data...
Computing Atmospheric mass density...
Loading historical data...
Loading historical data...
Loading historical data...
Loading historical data...
Loading historical data...
Loading historical data...
Loading historical data...

Documentation

Showing up to 5 results
|